Tracking 18843 objects as of 21-November-2017
HD Live streaming from Space Station
objects crossing your sky now

FENGYUN 1C DEB

Track FENGYUN 1C DEB now!
10-day predictions


NORAD ID: 29935
Int'l Code: 1999-025JH
Perigee: 746.0 km
Apogee: 967.6 km
Inclination: 98.3 °
Period: 101.9 minutes
Semi major axis: 7227 km
RCS: 0.0569 m2 (small)
Launch date: May 10, 1999
Source: People's Republic of China (PRC)
Launch site: Taiyaun Space Center, China (TSC)

Note: This is SATELLITE DEBRIS
aabbcc
Your satellite tracking list
Your tracking list is empty




NASA's NSSDC Master Catalog

Two Line Element Set (TLE):
1 29935U 99025JH  17324.47695903 +.00000049 +00000-0 +42680-4 0  9990
2 29935 098.3393 140.5334 0153279 026.8658 025.6554 14.12850509559569
Source of the keplerian elements: AFSPC